Location: Sweet Grass
(48.9965°N, 111.9649°W)
Time: 18:35:53
(UTC+00:00)

DX 1 - Pass Details

Date: 07 April 2023
Orbit: 615 x 625 km, 98.4° (Epoch: 04 June)

Event Time Altitude Azimuth Distance (km) Brightness Sun altitude
Rises 07:01:17 0° 4° (N) 2,900 ? -33.9°
Reaches altitude 10° 07:03:47 10° 351° (N) 1,990 ? -33.9°
Enters shadow 07:05:49 20° 327° (NNW) 1,427 ? -34.0°
